Weather History for KMYR - March, 2013

Change the Weather History Date:

Wednesday, March 6, 2013

  Actual Average Record
Temperature  
Mean Temperature 51 °F -  
Max Temperature 60 °F 59 °F 77 °F (1955)
Min Temperature 41 °F 40 °F 25 °F (1954)
Degree Days  
Heating Degree Days 14    
Growing Degree Days 1 (Base 50)    
Moisture  
Dew Point 33 °F    
Average Humidity 52    
Maximum Humidity 77    
Minimum Humidity 30    
Precipitation  
Precipitation 0.02 in - - ()
Sea Level Pressure  
Sea Level Pressure 29.78 in    
Wind  
Wind Speed 18 mph (WNW)    
Max Wind Speed 25 mph    
Max Gust Speed 36 mph    
Visibility 10 miles    
Events      
Averages and records for this station are not official NWS values.
T = Trace of Precipitation, MM = Missing Value Source: NWS Daily Summary

Daily Weather History Graph

Daily Weather History Graph

Search for Another Location

Airport or City:

Trip Planner

Search our weather history database for the weather conditions in past years. The results will help you decide how hot, cold, wet, or windy it might be!

Date:

Astronomy

Mar. 06, 2013 Rise Set
Actual Time 6:37 AM EST 6:16 PM EST
Civil Twilight 6:12 AM EST 6:41 PM EST
Nautical Twilight 5:43 AM EST 7:10 PM EST
Astronomical Twilight 5:15 AM EST 7:39 PM EST
Moon 2:33 AM EST (3/6) 1:08 PM EST (3/6)
Length of Visible Light 12h 28m
Length of Day
11h 39m
Waning Crescent, 30% of the Moon is Illuminated
Mar 6
Waning Crescent
Mar 11
New
Mar 19
First Quarter
Mar 27
Full
Apr 3
Last Quarter

Hourly Weather History & Observations

Time (EST) Temp. Windchill Dew Point Humidity Pressure Visibility Wind Dir Wind Speed Gust Speed Precip Events Conditions
12:15 AM 60.8 °F - 51.8 °F 72% 29.65 in 10.0 mi SW 16.1 mph 24.2 mph N/A   Mostly Cloudy
12:35 AM 60.8 °F - 51.8 °F 72% 29.65 in 10.0 mi WSW 13.8 mph 23.0 mph N/A   Mostly Cloudy
12:55 AM 60.8 °F - 51.8 °F 72% 29.64 in 10.0 mi WSW 13.8 mph 17.3 mph N/A   Clear
1:15 AM 60.8 °F - 51.8 °F 72% 29.64 in 10.0 mi SW 16.1 mph 23.0 mph N/A   Mostly Cloudy
1:35 AM 59.0 °F - 51.8 °F 77% 29.64 in 10.0 mi WSW 18.4 mph 24.2 mph N/A   Scattered Clouds
1:55 AM 59.0 °F - 51.8 °F 77% 29.63 in 10.0 mi WSW 11.5 mph 21.9 mph N/A   Scattered Clouds
2:15 AM 59.0 °F - 50.0 °F 72% 29.62 in 10.0 mi West 12.7 mph 26.5 mph N/A   Mostly Cloudy
2:35 AM 55.4 °F - 44.6 °F 67% 29.64 in 10.0 mi West 20.7 mph 29.9 mph N/A   Mostly Cloudy
2:55 AM 53.6 °F - 37.4 °F 54% 29.65 in 10.0 mi West 20.7 mph 33.4 mph N/A   Partly Cloudy
3:15 AM 51.8 °F - 35.6 °F 54% 29.65 in 10.0 mi West 23.0 mph 32.2 mph N/A   Clear
3:35 AM 50.0 °F - 35.6 °F 58% 29.66 in 10.0 mi West 25.3 mph 33.4 mph N/A   Clear
3:55 AM 48.2 °F - 33.8 °F 58% 29.66 in 10.0 mi West 25.3 mph 33.4 mph N/A   Clear
4:15 AM 46.4 °F 38.3 °F 33.8 °F 62% 29.67 in 10.0 mi West 23.0 mph 33.4 mph N/A   Partly Cloudy
4:35 AM 46.4 °F 39.0 °F 33.8 °F 62% 29.68 in 10.0 mi West 19.6 mph 28.8 mph N/A   Mostly Cloudy
4:55 AM 46.4 °F 37.9 °F 32.0 °F 57% 29.69 in 10.0 mi West 25.3 mph 32.2 mph N/A   Mostly Cloudy
5:15 AM 44.6 °F 35.9 °F 28.4 °F 53% 29.70 in 10.0 mi West 23.0 mph 32.2 mph N/A   Partly Cloudy
5:35 AM 42.8 °F 34.3 °F 28.4 °F 57% 29.71 in 10.0 mi West 19.6 mph 29.9 mph N/A   Clear
6:45 AM 42.8 °F 34.8 °F 26.6 °F 53% 29.72 in 10.0 mi West 17.3 mph 25.3 mph N/A   Partly Cloudy
7:46 AM 42.8 °F 34.8 °F 26.6 °F 53% 29.75 in 10.0 mi WNW 17.3 mph 28.8 mph N/A   Clear
10:50 AM 48.2 °F - 21.2 °F 34% 29.78 in 10.0 mi WNW 16.1 mph 27.6 mph N/A   Scattered Clouds
11:50 AM 48.2 °F - 21.2 °F 34% 29.79 in 10.0 mi NW 19.6 mph 27.6 mph N/A   Partly Cloudy
12:45 PM 51.8 °F - 21.2 °F 30% 29.78 in 10.0 mi WNW 23.0 mph 34.5 mph N/A   Partly Cloudy
1:45 PM 51.8 °F - 21.2 °F 30% 29.76 in 10.0 mi NW 23.0 mph 34.5 mph N/A   Clear
2:45 PM 51.8 °F - 23.0 °F 33% 29.97 in 10.0 mi WNW 23.0 mph 28.8 mph N/A   Clear
3:50 PM 53.6 °F - 24.8 °F 33% 29.79 in 10.0 mi WNW 23.0 mph 28.8 mph N/A   Clear
4:45 PM 53.6 °F - 24.8 °F 33% 29.81 in 10.0 mi WNW 23.0 mph 35.7 mph N/A   Partly Cloudy
5:45 PM 51.8 °F - 23.0 °F 33% 29.85 in 10.0 mi NW 20.7 mph 34.5 mph N/A   Partly Cloudy
6:50 PM 50.0 °F - 24.8 °F 37% 29.91 in 10.0 mi NNW 17.3 mph 28.8 mph N/A   Clear
7:45 PM 48.2 °F - 24.8 °F 40% 29.95 in 10.0 mi NW 23.0 mph - N/A   Scattered Clouds
8:45 PM 46.4 °F 39.5 °F 24.8 °F 43% 29.98 in 10.0 mi NNW 17.3 mph - N/A   Partly Cloudy
9:45 PM 44.6 °F 37.2 °F 24.8 °F 46% 30.00 in 10.0 mi NNW 17.3 mph - N/A   Clear
10:55 PM 42.8 °F 36.6 °F 24.8 °F 49% 30.02 in 10.0 mi NW 11.5 mph 20.7 mph N/A   Clear
11:15 PM 42.8 °F 37.0 °F 26.6 °F 53% 30.03 in 10.0 mi NW 10.4 mph - N/A   Clear
11:35 PM 42.8 °F 35.8 °F 26.6 °F 53% 30.03 in 10.0 mi NW 13.8 mph 21.9 mph N/A   Clear
11:55 PM 41.0 °F 34.3 °F 24.8 °F 53% 30.05 in 10.0 mi WNW 11.5 mph 18.4 mph N/A   Clear